Tracking 31027 objects as of 19-Jul-2025
HD Live streaming from Space Station
objects crossing your sky now

FENGYUN 1C DEB

Track FENGYUN 1C DEB now!
10-day predictions


NORAD ID: 31731
Int'l Code: 1999-025CEE
Perigee: 763.0 km
Apogee: 779.4 km
Inclination: 99.3 °
Period: 100.1 minutes
Semi major axis: 7142 km
RCS: 0.0064 m2 (small)
Launch date: May 10, 1999
Source: People's Republic of China (PRC)
Launch site: Taiyaun Space Center, China (TSC)

Note: This is SATELLITE DEBRIS
Your satellite tracking list
COSMOS 830
Track 1 satellite(s)




NASA's NSSDC Master Catalog

Two Line Element Set (TLE):
1 31731U 99025CEE 25186.53776642  .00003319  00000-0  11060-2 0  9998
2 31731  99.3141 221.0882 0011493 192.7570 167.3325 14.38313530935269
Source of the keplerian elements: AFSPC